STARLINK BL

Last updated on Wed May 19 2021 00:02:08 GMT+0000 (Coordinated Universal Time)

1 48486U 21040BL 21138.58335648 -.01108126 00000-0 -47014-2 0 9993 2 48486 53.0509 177.2603 0001065 71.9215 195.7829 15.87209050 1770

Satellite not in orbit